Regional Weather Roundup
Issued by NWS

Home | Current Version | Previous Version | Text Only | Print | Product List | Glossary Off
Versions: 1 2 3 4 5 6 7 8 9 10 11 12 13 14 15 16 17 18 19 20 21 22 23 24 25 26 27 28 29 30 31 32 33 34 35 36 37 38 39 40 41 42 43 44 45 46 47 48 49 50

000
ASUS45 KPSR 271310
RWRAZ

ARIZONA HOURLY REGIONAL WEATHER ROUNDUP
NATIONAL WEATHER SERVICE PHOENIX AZ
600 AM MST MON MAR 27 2017

NOTE: FAIR INDICATES FEW OR NO CLOUDS BELOW 12,000 FEET WITH NO
SIGNIFICANT WEATHER AND/OR OBSTRUCTIONS TO VISIBILITY.

AZZ001>003-036-271400-
NORTHWEST ARIZONA

CITY           SKY/WX    TMP DP  RH WIND       PRES   REMARKS
BULLHEAD CITY  PTCLDY    64  37  36 S8        29.83R
KINGMAN        PTCLDY    51  26  37 S7        29.88S
$$

AZZ004>008-015-016-018-271400-
NORTH CENTRAL ARIZONA

CITY           SKY/WX    TMP DP  RH WIND       PRES   REMARKS
GRAND CANYON   CLOUDY    31  29  92 CALM      29.99S
WILLIAMS       CLOUDY    41  25  52 S6        29.99S
PRESCOTT       CLOUDY    46  33  60 SE5       29.96F
FLAGSTAFF      CLOUDY    33  27  78 CALM      30.00F
PAYSON         PTCLDY    41  28  60 CALM      30.02S
PAGE           CLOUDY    50  33  52 CALM      29.89F
$$

AZZ009>014-017-271400-
NORTHEAST ARIZONA

CITY           SKY/WX    TMP DP  RH WIND       PRES   REMARKS
WINSLOW        PTCLDY    36  26  67 E5        29.98S WCI  32
SAINT JOHNS    PTCLDY    34  21  59 S5        30.00S WCI  30
WINDOW ROCK    MOCLDY    28  23  81 CALM      30.02S
SHOW LOW       CLEAR     37  23  56 S13       30.03R WCI  29
$$

AZZ023-271400-
GREATER PHOENIX AREA

CITY           SKY/WX    TMP DP  RH WIND       PRES   REMARKS
PHOENIX        PTCLDY    59  38  45 E7        29.87R
BUCKEYE        PTCLDY    52  32  46 NE5       29.87S
GLENDALE       PTCLDY    55  37  50 CALM      29.89
LUKE AFB       CLEAR     56  39  53 NW6       29.86S
DEER VALLEY    CLEAR     53  36  52 N7        29.88R
SCOTTSDALE     CLEAR     56  40  55 CALM      29.89R
MESA-FALCON    PTCLDY   N/A N/A N/A N7        29.86
MESA-GATEWAY   PTCLDY    54  36  50 SE10      29.89R
CHANDLER       CLEAR     55  39  54 NE5       29.88
$$

AZZ027-028-271400-
SOUTHWEST MARICOPA COUNTY AND PINAL COUNTY

CITY           SKY/WX    TMP DP  RH WIND       PRES   REMARKS
CASA GRANDE    NOT AVBL
GILA BEND      FAIR      57  31  36 SE6       29.87R
$$

AZZ503-504-507>509-271400-
SOUTHEAST ARIZONA

CITY           SKY/WX    TMP DP  RH WIND       PRES   REMARKS
TUCSON         CLEAR     53  28  38 SE8       29.95S
DAVIS-MONTHAN  CLEAR     51  27  39 SE7       29.94S
RYAN FIELD     CLEAR     48  27  43 CALM      29.95
NOGALES        CLEAR     45  27  49 E5        29.98S
SIERRA VISTA   CLEAR     50  26  39 W7        30.01R
DOUGLAS        CLEAR     45  22  40 SE5       30.00R
SAFFORD        CLEAR     43  25  49 N3        29.95R
$$

AZZ020-021-025-026-031-271400-
SOUTHWEST ARIZONA

CITY           SKY/WX    TMP DP  RH WIND       PRES   REMARKS
YUMA           CLEAR     59  46  62 SW6       29.85R
$$

CAZ031-033-041-043-047-048-061-271400-
SOUTHERN CALIFORNIA

CITY           SKY/WX    TMP DP  RH WIND       PRES   REMARKS
DOWNTOWN L.A.  MOCLDY    56  52  86 CALM      30.01R
L.A. AIRPORT   MOCLDY    55  53  93 NE5       30.01S
SAN DIEGO      MOCLDY    60  50  69 CALM      30.03S
BURBANK        MOCLDY    52  45  77 CALM      30.00R
ONTARIO        PTCLDY    52  49  89 W6        30.01R
RIVERSIDE      CLOUDY    52  50  93 W3        30.01F
PALM SPRINGS   CLEAR     60  50  69 CALM      29.86R
EL CENTRO NAS  MOCLDY    64  42  44 W14       29.87R
IMPERIAL       PTCLDY    61  45  55 W10       29.85R
BLYTHE         MOCLDY    63  48  58 SW3       29.83R
NEEDLES        MOCLDY    67  39  35 NW13      29.83R
$$

NVZ020-UTZ003-271400-
SOUTHERN NEVADA-UTAH

CITY           SKY/WX    TMP DP  RH WIND       PRES   REMARKS
LAS VEGAS      PTCLDY    59  35  40 S15G24    29.76F
SALT LAKE CITY MOCLDY    46  38  73 SE9       29.86S
$$

NMZ009-TXZ055-271400-
NEW MEXICO-WEST TEXAS

CITY           SKY/WX    TMP DP  RH WIND       PRES   REMARKS
ALBUQUERQUE    CLOUDY    42  26  53 N3        30.00S
EL PASO        PTCLDY    55  18  23 S6        29.97R
$$


........................KEY........................
SKY/WX - SKY CONDITION/WEATHER
TMP    - TEMPERATURE IN FAHRENHEIT
DP     - DEW POINT IN FAHRENHEIT
RH     - RELATIVE HUMIDITY IN PERCENT
WIND   - DIRECTION AND SPEED IN MILES PER HOUR (MPH)
VRB    - VARIABLE WIND DIRECTION
PRES   - MEAN SEA LEVEL PRESSURE IN INCHES OF MERCURY
         F - FALLING PRESSURE   R - RISING PRESSURE
         S - STEADY PRESSURE
VSB    - VISIBILITY IN MILES
HX     - HEAT INDEX IN FAHRENHEIT
WCI    - WIND CHILL INDEX IN FAHRENHEIT
TC     - TEMPERATURE IN CELSIUS WHICH IS ALSO KNOWN AS
         TEMPERATURE IN CENTIGRADE
AFB    - AIR FORCE BASE
         LUKE AFB IS LUKE AIR FORCE BASE
         DAVIS-MONTHAN IS DAVIS-MONTHAN AIR FORCE BASE
NAS    - NAVAL AIR STATION
         EL CENTRO NAS IS EL CENTRO NAVAL AIR STATION
N/A    - NOT AVAILABLE




USA.gov is the U.S. government's official web portal to all federal, state and local government web resources and services.